Coeur d'Alene, ID

12:04 AM PDT on October 17, 2017 (GMT -0700)
Coeur D'Alene

Weather History for KCOE - September, 2012

Change the Weather History Date:

Monday, September 17, 2012

  Actual Average Record
Temperature  
Mean Temperature 59 °F -  
Max Temperature 77 °F 68 °F 89 °F (2008)
Min Temperature 41 °F 42 °F 35 °F (1996)
Degree Days  
Heating Degree Days 6    
Growing Degree Days 9 (Base 50)    
Moisture  
Dew Point 29 °F    
Average Humidity 44    
Maximum Humidity 81    
Minimum Humidity 10    
Precipitation  
Precipitation 0.00 in - - ()
Sea Level Pressure  
Sea Level Pressure 30.13 in    
Wind  
Wind Speed 3 mph (East)    
Max Wind Speed 8 mph    
Max Gust Speed -    
Visibility 10 miles    
Events      
Averages and records for this station are not official NWS values.
T = Trace of Precipitation, MM = Missing Value Source: NWS Daily Summary

Daily Weather History Graph

Daily Weather History Graph

Search for Another Location

Airport or City:

Trip Planner

Search our weather history database for the weather conditions in past years. The results will help you decide how hot, cold, wet, or windy it might be!

Date:

Astronomy

Sep. 17, 2012 Rise Set
Actual Time 6:28 AM PDT 6:54 PM PDT
Civil Twilight 5:56 AM PDT 7:25 PM PDT
Nautical Twilight 5:20 AM PDT 8:01 PM PDT
Astronomical Twilight 4:42 AM PDT 8:39 PM PDT
Moon 8:35 AM PDT 7:23 PM PDT
Length of Visible Light 13h 28m
Length of Day
12h 26m
Waxing Crescent, 4% of the Moon is Illuminated
Sep 17
Waxing Crescent
Sep 22
First Quarter
Sep 29
Full
Oct 8
Last Quarter
Oct 15
New

Hourly Weather History & Observations

Time (PDT) Temp. Windchill Dew Point Humidity Pressure Visibility Wind Dir Wind Speed Gust Speed Precip Events Conditions
12:15 AM 51.8 °F - 41.0 °F 67% 30.12 in 10.0 mi Calm Calm - N/A   Clear
12:35 AM 50.0 °F - 37.4 °F 62% 30.12 in 10.0 mi Calm Calm - N/A   Clear
12:55 AM 51.8 °F - 39.2 °F 62% 30.12 in 10.0 mi Calm Calm - N/A   Clear
1:15 AM 42.8 °F - 37.4 °F 81% 30.12 in 10.0 mi Calm Calm - N/A   Clear
1:35 AM 44.6 °F 43.1 °F 35.6 °F 71% 30.12 in 10.0 mi NE 3.5 mph - N/A   Clear
1:55 AM 44.6 °F 41.4 °F 37.4 °F 76% 30.13 in 10.0 mi NE 5.8 mph - N/A   Clear
2:15 AM 44.6 °F - 35.6 °F 71% 30.13 in 10.0 mi Calm Calm - N/A   Clear
2:55 AM 42.8 °F 40.1 °F 35.6 °F 76% 30.14 in 10.0 mi ENE 4.6 mph - N/A   Clear
3:15 AM 42.8 °F 39.3 °F 35.6 °F 76% 30.14 in 10.0 mi NE 5.8 mph - N/A   Clear
3:35 AM 42.8 °F 41.1 °F 35.6 °F 76% 30.14 in 10.0 mi NE 3.5 mph - N/A   Clear
3:55 AM 41.0 °F 37.1 °F 33.8 °F 76% 30.14 in 10.0 mi ENE 5.8 mph - N/A   Clear
4:15 AM 41.0 °F 37.1 °F 33.8 °F 76% 30.15 in 10.0 mi NE 5.8 mph - N/A   Clear
4:35 AM 41.0 °F 38.0 °F 33.8 °F 76% 30.14 in 10.0 mi NE 4.6 mph - N/A   Clear
5:15 AM 41.0 °F 38.0 °F 33.8 °F 76% 30.15 in 10.0 mi NE 4.6 mph - N/A   Clear
5:35 AM 41.0 °F 39.0 °F 35.6 °F 81% 30.15 in 10.0 mi ENE 3.5 mph - N/A   Clear
5:55 AM 42.8 °F 41.1 °F 33.8 °F 70% 30.15 in 10.0 mi ENE 3.5 mph - N/A   Clear
6:15 AM 41.0 °F 37.1 °F 33.8 °F 76% 30.15 in 10.0 mi East 5.8 mph - N/A   Clear
6:35 AM 42.8 °F 41.1 °F 35.6 °F 76% 30.16 in 10.0 mi East 3.5 mph - N/A   Clear
6:55 AM 42.8 °F 38.6 °F 33.8 °F 70% 30.16 in 10.0 mi East 6.9 mph - N/A   Clear
7:15 AM 46.4 °F 43.5 °F 39.2 °F 76% 30.17 in 10.0 mi ENE 5.8 mph - N/A   Clear
7:35 AM 51.8 °F - 39.2 °F 62% 30.17 in 10.0 mi East 4.6 mph - N/A   Clear
8:15 AM 55.4 °F - 42.8 °F 63% 30.18 in 10.0 mi ESE 3.5 mph - N/A   Clear
8:35 AM 55.4 °F - 42.8 °F 63% 30.18 in 10.0 mi ESE 4.6 mph - N/A   Clear
8:55 AM 57.2 °F - 42.8 °F 59% 30.18 in 10.0 mi East 4.6 mph - N/A   Clear
9:15 AM 59.0 °F - 42.8 °F 55% 30.19 in 10.0 mi Calm Calm - N/A   Clear
11:35 AM 69.8 °F - 10.4 °F 10% 30.18 in 10.0 mi SSW 5.8 mph - N/A   Unknown
11:55 AM - - - N/A% - - North - - N/A   Unknown
12:15 PM 71.6 °F - 12.2 °F 10% 30.17 in 10.0 mi SSE 5.8 mph - N/A   Clear
12:35 PM 71.6 °F - 14.0 °F 11% 30.16 in 10.0 mi East 3.5 mph - N/A   Clear
12:55 PM 73.4 °F - 14.0 °F 10% 30.16 in 10.0 mi SSW 4.6 mph - N/A   Unknown
1:15 PM 73.4 °F - 14.0 °F 10% 30.15 in 10.0 mi Calm Calm - N/A   Clear
1:35 PM 75.2 °F - 15.8 °F 11% 30.15 in 10.0 mi SW 5.8 mph - N/A   Clear
1:55 PM 75.2 °F - 15.8 °F 11% 30.14 in 9.0 mi West 5.8 mph - N/A   Clear
2:15 PM 75.2 °F - 15.8 °F 11% 30.14 in 10.0 mi WNW 5.8 mph - N/A   Clear
2:35 PM 77.0 °F - 17.6 °F 11% 30.13 in 10.0 mi West 5.8 mph - N/A   Clear
2:55 PM 77.0 °F - 17.6 °F 11% 30.13 in 10.0 mi SW 8.1 mph - N/A   Clear
3:15 PM 77.0 °F - 17.6 °F 11% 30.12 in 10.0 mi West 6.9 mph - N/A   Clear
3:55 PM 77.0 °F - 17.6 °F 11% 30.11 in 10.0 mi Calm Calm - N/A   Clear
4:15 PM 77.0 °F - 17.6 °F 11% 30.11 in 10.0 mi West 4.6 mph - N/A   Clear
4:35 PM 77.0 °F - 17.6 °F 11% 30.11 in 10.0 mi WSW 5.8 mph - N/A   Clear
4:55 PM 77.0 °F - 17.6 °F 11% 30.11 in 10.0 mi West 3.5 mph - N/A   Clear
5:15 PM 75.2 °F - 17.6 °F 11% 30.10 in 10.0 mi Calm Calm - N/A   Clear
5:35 PM 77.0 °F - 17.6 °F 11% 30.10 in 10.0 mi West 5.8 mph - N/A   Clear
5:55 PM 75.2 °F - 17.6 °F 11% 30.10 in 10.0 mi West 4.6 mph - N/A   Clear
6:15 PM 75.2 °F - 15.8 °F 11% 30.10 in 10.0 mi Calm Calm - N/A   Clear
6:35 PM 71.6 °F - 14.0 °F 11% 30.10 in 10.0 mi Calm Calm - N/A   Clear
6:55 PM 69.8 °F - 12.2 °F 11% 30.10 in 10.0 mi Calm Calm - N/A   Clear
7:15 PM 68.0 °F - 10.4 °F 11% 30.10 in 10.0 mi South 4.6 mph - N/A   Clear
7:35 PM 66.2 °F - 10.4 °F 11% 30.10 in 10.0 mi SE 4.6 mph - N/A   Clear
7:55 PM 62.6 °F - 8.6 °F 12% 30.10 in 10.0 mi ESE 6.9 mph - N/A   Clear
8:15 PM 60.8 °F - 51.8 °F 72% 30.11 in 10.0 mi Calm Calm - N/A   Clear
8:35 PM 62.6 °F - 8.6 °F 12% 30.11 in 10.0 mi ESE 3.5 mph - N/A   Clear
8:55 PM 59.0 °F - - N/A% 30.11 in 10.0 mi Calm Calm - N/A   Clear
9:15 PM 60.8 °F - 44.6 °F 55% 30.11 in 10.0 mi SE 3.5 mph - N/A   Clear
9:35 PM 59.0 °F - 42.8 °F 55% 30.11 in 10.0 mi Calm Calm - N/A   Clear
9:55 PM 55.4 °F - 41.0 °F 58% 30.11 in 10.0 mi East 4.6 mph - N/A   Clear
10:15 PM 53.6 °F - 41.0 °F 62% 30.12 in 10.0 mi East 3.5 mph - N/A   Clear
10:35 PM 55.4 °F - 42.8 °F 63% 30.12 in 10.0 mi ESE 3.5 mph - N/A   Clear
10:55 PM 55.4 °F - 41.0 °F 58% 30.12 in 10.0 mi East 3.5 mph - N/A   Clear
11:15 PM 53.6 °F - 39.2 °F 58% 30.12 in 10.0 mi East 3.5 mph - N/A   Clear
11:35 PM 51.8 °F - 39.2 °F 62% 30.11 in 10.0 mi ENE 6.9 mph - N/A   Clear
11:55 PM 50.0 °F - 37.4 °F 62% 30.11 in 10.0 mi East 5.8 mph - N/A   Clear